{"data":{"norad_id":82529,"epoch":"2026-09-06T10:58:19.056000Z","epoch_age_seconds":1235314,"freshness":"OLD","line1":"1 82529U          26249.45716500  .00000124  00000+0  25503-3 0  9991","line2":"2 82529  99.7763 329.2886 0240420 307.7365 112.3703 13.41512640625636","mean_motion":13.4151264,"eccentricity":0.024042,"inclination_deg":99.7763,"raan_deg":329.2886,"arg_perigee_deg":307.7365,"mean_anomaly_deg":112.3703,"bstar":0.00025503,"rev_number":62563,"period_min":107.34151561926,"perigee_km":923.77268496695,"apogee_km":1283.5269216164,"semimajor_km":7481.7868032917,"source":"CELESTRAK","updated_at":"2026-09-20T09:00:32.436347Z"}}